Orbital Elements at Epoch 2459000.5 (2020-May-31.0) TDB
Reference: JPL 23 (heliocentric ecliptic J2000)
Element | Value | Uncertainty (1-sigma) | Units |
e | .240929794153443 | 3.3741e-08 | |
a | 2.260086641950743 | 8.559e-09 | au |
q | 1.715564432536604 | 7.7764e-08 | au |
i | 5.701262348833566 | 3.5919e-06 | deg |
node | 109.6165546197312 | 4.5069e-05 | deg |
peri | 187.0253639656463 | 4.621e-05 | deg |
M | 172.5259121846267 | 9.6117e-06 | deg |
tp | 2458405.745288547777 (2018-Oct-14.24528855) | 3.3202e-05 | TDB |
period | 1241.040800257708 3.40 | 7.0498e-06 1.93e-08 | d yr |
n | .2900791012876 | 1.6478e-09 | deg/d |
Q | 2.804608851364882 | 1.0621e-08 | au |
|
| | Orbit Determination Parameters
Additional Information
|